,,,PA_Meas_PMT16A,,PR_Meas_QMR101_102,,RH_Meas_QMH101,,SR_Meas_QMS101,,TA_Meas_QMH101,,GenWind,,GenWind,
date,time,status,PA,status,PR,status,RH,status,SR,status,TA,status,DirAvg,status,SpdAvg,
2010-10-28, 00:00:05,VALID,999.964,VALID,0,VALID,92.4481,VALID,0,VALID,23.6214,VALID,11,VALID,0.342578,
2010-10-28, 00:01:05,VALID,999.974,VALID,0,VALID,92.471,VALID,0,VALID,23.6019,VALID,11,VALID,0.435547,
2010-10-28, 00:02:05,VALID,999.987,VALID,0,VALID,92.471,VALID,0,VALID,23.6019,VALID,11,VALID,0.867578,
2010-10-28, 00:03:05,VALID,999.961,VALID,0,VALID,92.471,VALID,0,VALID,23.6019,VALID,8,VALID,0.840234,
2010-10-28, 00:04:05,VALID,999.969,VALID,0,VALID,92.4863,VALID,0,VALID,23.6214,VALID,4,VALID,0.485547,
2010-10-28, 00:05:05,VALID,999.961,VALID,0,VALID,92.4786,VALID,0,VALID,23.6019,VALID,4,VALID,0.341016,
2010-10-28, 00:06:05,VALID,999.961,VALID,0,VALID,92.4557,VALID,0,VALID,23.6019,VALID,4,VALID,0.125391,
2010-10-28, 00:07:05,VALID,999.93,VALID,0,VALID,92.4557,VALID,0,VALID,23.6214,VALID,4,VALID,0,
2010-10-28, 00:08:05,VALID,999.933,VALID,0,VALID,92.4481,VALID,0,VALID,23.6019,VALID,4,VALID,0,
2010-10-28, 00:09:05,VALID,999.968,VALID,0,VALID,92.4786,VALID,0.112286,VALID,23.6019,VALID,4,VALID,0.0480469,
2010-10-28, 00:10:05,VALID,1000,VALID,0,VALID,92.4939,VALID,0,VALID,23.6019,VALID,4,VALID,0.251953,
2010-10-28, 00:11:05,VALID,1000.04,VALID,0,VALID,92.4939,VALID,0,VALID,23.6019,VALID,4,VALID,0.217578,
2010-10-28, 00:12:05,VALID,1000.06,VALID,0,VALID,92.5015,VALID,0,VALID,23.6019,VALID,4,VALID,0.4125,
2010-10-28, 00:13:05,VALID,1000.13,VALID,0,VALID,92.532,VALID,0,VALID,23.6019,VALID,4,VALID,0.504687,
2010-10-28, 00:14:05,VALID,1000.18,VALID,0,VALID,92.5015,VALID,0,VALID,23.5823,VALID,4,VALID,0.479297,
2010-10-28, 00:15:05,VALID,1000.2,VALID,0,VALID,92.5091,VALID,0,VALID,23.6019,VALID,4,VALID,0.419531,
2010-10-28, 00:16:05,VALID,1000.22,VALID,0,VALID,92.5091,VALID,0,VALID,23.6427,VALID,4,VALID,0.327344,
2010-10-28, 00:17:05,VALID,1000.21,VALID,0,VALID,92.5015,VALID,0,VALID,23.6409,VALID,4,VALID,0.360547,
2010-10-28, 00:18:05,VALID,1000.19,VALID,0,VALID,92.532,VALID,0,VALID,23.6604,VALID,4,VALID,0.480859,
2010-10-28, 00:19:05,VALID,1000.16,VALID,0,VALID,92.5168,VALID,0,VALID,23.6994,VALID,84,VALID,0.460156,
2010-10-28, 00:20:05,VALID,1000.12,VALID,0,VALID,92.5091,VALID,0,VALID,23.7189,VALID,113,VALID,0.539453,
2010-10-28, 00:21:05,VALID,1000.14,VALID,0,VALID,92.5015,VALID,0,VALID,23.7384,VALID,113,VALID,0.309766,
2010-10-28, 00:22:05,VALID,1000.1,VALID,0,VALID,92.471,VALID,0,VALID,23.7384,VALID,113,VALID,0.349609,
2010-10-28, 00:23:05,VALID,1000.08,VALID,0,VALID,92.4328,VALID,0,VALID,23.7579,VALID,113,VALID,0.454688,
2010-10-28, 00:24:05,VALID,1000.06,VALID,0,VALID,92.4405,VALID,0,VALID,23.7793,VALID,113,VALID,0.346094,
2010-10-28, 00:25:05,VALID,1000.03,VALID,0,VALID,92.3871,VALID,0,VALID,23.797,VALID,113,VALID,0.241406,
2010-10-28, 00:26:05,VALID,1000.02,VALID,0,VALID,92.3947,VALID,0,VALID,23.8165,VALID,113,VALID,0.374609,
2010-10-28, 00:27:05,VALID,999.935,VALID,0,VALID,92.3871,VALID,0,VALID,23.836,VALID,113,VALID,0.863672,
2010-10-28, 00:28:05,VALID,999.89,VALID,0,VALID,92.3718,VALID,0,VALID,23.836,VALID,267,VALID,0.535547,
2010-10-28, 00:29:05,VALID,999.828,VALID,0,VALID,92.3337,VALID,0,VALID,23.8768,VALID,277,VALID,0.746484,
2010-10-28, 00:30:05,VALID,999.783,VALID,0,VALID,92.2955,VALID,0,VALID,23.8768,VALID,277,VALID,0.597266,
2010-10-28, 00:31:04,VALID,999.724,VALID,0,VALID,92.2345,VALID,0,VALID,23.875,VALID,277,VALID,0.580859,
2010-10-28, 00:32:04,VALID,999.739,VALID,0,VALID,92.2268,VALID,0,VALID,23.8945,VALID,277,VALID,0.566797,
2010-10-28, 00:33:04,VALID,999.727,VALID,0,VALID,92.1658,VALID,0,VALID,23.875,VALID,277,VALID,0.719922,
2010-10-28, 00:34:04,VALID,999.733,VALID,0,VALID,92.1277,VALID,0,VALID,23.8537,VALID,277,VALID,0.539063,
2010-10-28, 00:35:04,VALID,999.742,VALID,0,VALID,92.0819,VALID,0,VALID,23.8555,VALID,277,VALID,0.587891,
2010-10-28, 00:36:04,VALID,999.758,VALID,0,VALID,92.0666,VALID,0,VALID,23.8573,VALID,277,VALID,0.419922,
2010-10-28, 00:37:04,VALID,999.744,VALID,0,VALID,92.0514,VALID,0,VALID,23.8165,VALID,277,VALID,0.39375,
2010-10-28, 00:38:04,VALID,999.749,VALID,0,VALID,92.059,VALID,0,VALID,23.8165,VALID,277,VALID,0.396094,
2010-10-28, 00:39:04,VALID,999.751,VALID,0,VALID,92.0666,VALID,0,VALID,23.8201,VALID,277,VALID,0.260547,
2010-10-28, 00:40:04,VALID,999.774,VALID,0,VALID,92.0437,VALID,0,VALID,23.8006,VALID,277,VALID,0.273047,
2010-10-28, 00:41:04,VALID,999.769,VALID,0,VALID,92.0361,VALID,0,VALID,23.7597,VALID,277,VALID,0.447266,
2010-10-28, 00:42:04,VALID,999.791,VALID,0,VALID,92.0514,VALID,0,VALID,23.7207,VALID,277,VALID,0.699609,
2010-10-28, 00:43:04,VALID,999.77,VALID,0,VALID,92.1048,VALID,0,VALID,23.7012,VALID,359,VALID,0.822656,
2010-10-28, 00:44:04,VALID,999.779,VALID,0,VALID,92.1658,VALID,0,VALID,23.7012,VALID,9,VALID,0.8625,
2010-10-28, 00:45:04,VALID,999.723,VALID,0,VALID,92.2497,VALID,0,VALID,23.7012,VALID,35,VALID,0.700781,
2010-10-28, 00:46:04,VALID,999.747,VALID,0,VALID,92.3184,VALID,0,VALID,23.7207,VALID,35,VALID,0.749609,
2010-10-28, 00:47:04,VALID,999.76,VALID,0,VALID,92.326,VALID,0,VALID,23.7207,VALID,59,VALID,1.13008,
2010-10-28, 00:48:04,VALID,999.751,VALID,0,VALID,92.326,VALID,0,VALID,23.7225,VALID,59,VALID,0.932031,
2010-10-28, 00:49:04,VALID,999.757,VALID,0,VALID,92.3337,VALID,0,VALID,23.7012,VALID,59,VALID,0.644531,
2010-10-28, 00:50:04,VALID,999.758,VALID,0,VALID,92.3108,VALID,0,VALID,23.7012,VALID,59,VALID,0.394531,
2010-10-28, 00:51:04,VALID,999.741,VALID,0,VALID,92.2955,VALID,0,VALID,23.7207,VALID,59,VALID,0.489844,
2010-10-28, 00:52:04,VALID,999.735,VALID,0,VALID,92.2803,VALID,0,VALID,23.7207,VALID,72,VALID,0.912891,
2010-10-28, 00:53:04,VALID,999.716,VALID,0,VALID,92.326,VALID,0,VALID,23.7616,VALID,73,VALID,0.912891,
2010-10-28, 00:54:04,VALID,999.658,VALID,0,VALID,92.3413,VALID,0,VALID,23.7402,VALID,73,VALID,0.554688,
2010-10-28, 00:55:04,VALID,999.628,VALID,0,VALID,92.3337,VALID,0,VALID,23.7402,VALID,73,VALID,0.302734,
2010-10-28, 00:56:04,VALID,999.578,VALID,0,VALID,92.326,VALID,0,VALID,23.7616,VALID,73,VALID,0.166406,
2010-10-28, 00:57:04,VALID,999.595,VALID,0,VALID,92.3566,VALID,0,VALID,23.7597,VALID,73,VALID,0.351563,
2010-10-28, 00:58:04,VALID,999.603,VALID,0,VALID,92.3718,VALID,0,VALID,23.7811,VALID,73,VALID,0.224219,
2010-10-28, 00:59:04,VALID,999.613,VALID,0,VALID,92.3794,VALID,0,VALID,23.7597,VALID,73,VALID,0.137891,
2010-10-28, 01:00:04,VALID,999.603,VALID,0,VALID,92.3947,VALID,0,VALID,23.7793,VALID,73,VALID,0,
2010-10-28, 01:01:04,VALID,999.618,VALID,0,VALID,92.3947,VALID,0,VALID,23.7793,VALID,73,VALID,0,
2010-10-28, 01:02:04,VALID,999.612,VALID,0,VALID,92.4023,VALID,0,VALID,23.7793,VALID,73,VALID,0,
2010-10-28, 01:03:04,VALID,999.631,VALID,0,VALID,92.4023,VALID,0,VALID,23.7988,VALID,73,VALID,0,
2010-10-28, 01:04:04,VALID,999.623,VALID,0,VALID,92.41,VALID,0,VALID,23.8201,VALID,73,VALID,0,
2010-10-28, 01:05:04,VALID,999.667,VALID,0,VALID,92.4252,VALID,0,VALID,23.7988,VALID,73,VALID,0,
2010-10-28, 01:06:04,VALID,999.68,VALID,0,VALID,92.4328,VALID,0,VALID,23.8006,VALID,107,VALID,0.607031,
2010-10-28, 01:07:04,VALID,999.736,VALID,0,VALID,92.4481,VALID,0,VALID,23.8183,VALID,140,VALID,0.848828,
2010-10-28, 01:08:04,VALID,999.751,VALID,0,VALID,92.4481,VALID,0,VALID,23.8573,VALID,140,VALID,0.661719,
2010-10-28, 01:09:04,VALID,999.784,VALID,0,VALID,92.4405,VALID,0,VALID,23.8982,VALID,140,VALID,0.648828,
2010-10-28, 01:10:04,VALID,999.794,VALID,0,VALID,92.3794,VALID,0,VALID,23.8963,VALID,140,VALID,0.603906,
2010-10-28, 01:11:04,VALID,999.799,VALID,0,VALID,92.3108,VALID,0,VALID,23.9159,VALID,140,VALID,0.491406,
2010-10-28, 01:12:04,VALID,999.786,VALID,0,VALID,92.2497,VALID,0,VALID,23.9354,VALID,140,VALID,0.374219,
2010-10-28, 01:13:04,VALID,999.754,VALID,0,VALID,92.1582,VALID,0,VALID,23.9159,VALID,140,VALID,0.445703,
2010-10-28, 01:14:04,VALID,999.689,VALID,0,VALID,92.1277,VALID,0,VALID,23.9549,VALID,140,VALID,0.388672,
2010-10-28, 01:15:04,VALID,999.652,VALID,0,VALID,92.0743,VALID,0,VALID,23.9744,VALID,134,VALID,0.630469,
2010-10-28, 01:16:04,VALID,999.616,VALID,0,VALID,92.059,VALID,0,VALID,23.9744,VALID,105,VALID,0.489453,
2010-10-28, 01:17:04,VALID,999.597,VALID,0,VALID,92.0132,VALID,0,VALID,23.9939,VALID,105,VALID,0.211719,
2010-10-28, 01:18:04,VALID,999.537,VALID,0,VALID,91.9293,VALID,0,VALID,24.0134,VALID,105,VALID,0.273828,
2010-10-28, 01:19:04,VALID,999.526,VALID,0,VALID,91.8606,VALID,0,VALID,24.0134,VALID,105,VALID,0,
2010-10-28, 01:20:04,VALID,999.522,VALID,0,VALID,91.7996,VALID,0,VALID,23.9939,VALID,105,VALID,0.0410156,
2010-10-28, 01:21:04,VALID,999.45,VALID,0,VALID,91.7309,VALID,0,VALID,23.9939,VALID,105,VALID,0,
2010-10-28, 01:22:04,VALID,999.447,VALID,0,VALID,91.6623,VALID,0,VALID,23.9939,VALID,105,VALID,0,
2010-10-28, 01:23:04,VALID,999.423,VALID,0,VALID,91.6623,VALID,0,VALID,23.9939,VALID,105,VALID,0,
2010-10-28, 01:24:04,VALID,999.409,VALID,0,VALID,91.6851,VALID,0,VALID,23.9921,VALID,105,VALID,0,
2010-10-28, 01:25:04,VALID,999.417,VALID,0,VALID,91.7309,VALID,0,VALID,23.9921,VALID,105,VALID,0,
2010-10-28, 01:26:04,VALID,999.439,VALID,0,VALID,91.7538,VALID,0.112286,VALID,23.9726,VALID,105,VALID,0,
2010-10-28, 01:27:04,VALID,999.42,VALID,0,VALID,91.7843,VALID,0,VALID,23.9726,VALID,105,VALID,0,
2010-10-28, 01:28:04,VALID,999.421,VALID,0,VALID,91.8072,VALID,0.112286,VALID,23.9336,VALID,105,VALID,0,
2010-10-28, 01:29:04,VALID,999.414,VALID,0,VALID,91.8301,VALID,0,VALID,23.9336,VALID,105,VALID,0,
2010-10-28, 01:30:04,VALID,999.417,VALID,0,VALID,91.853,VALID,0,VALID,23.9336,VALID,105,VALID,0,
2010-10-28, 01:31:04,VALID,999.397,VALID,0,VALID,91.8988,VALID,0,VALID,23.914,VALID,105,VALID,0,
2010-10-28, 01:32:04,VALID,999.376,VALID,0,VALID,91.914,VALID,0,VALID,23.9159,VALID,105,VALID,0,
2010-10-28, 01:33:04,VALID,999.397,VALID,0,VALID,91.9827,VALID,0,VALID,23.8945,VALID,105,VALID,0.0554687,
2010-10-28, 01:34:04,VALID,999.376,VALID,0,VALID,92.0285,VALID,0,VALID,23.9159,VALID,105,VALID,0.296484,
2010-10-28, 01:35:04,VALID,999.344,VALID,0,VALID,92.0895,VALID,0,VALID,23.914,VALID,105,VALID,0.251172,
2010-10-28, 01:36:04,VALID,999.325,VALID,0,VALID,92.1353,VALID,0,VALID,23.8945,VALID,105,VALID,0.253125,
2010-10-28, 01:37:04,VALID,999.329,VALID,0,VALID,92.1582,VALID,0,VALID,23.914,VALID,105,VALID,0.278906,
2010-10-28, 01:38:04,VALID,999.293,VALID,0,VALID,92.1734,VALID,0,VALID,23.8945,VALID,105,VALID,0.338672,
2010-10-28, 01:39:04,VALID,999.269,VALID,0,VALID,92.1963,VALID,0,VALID,23.8963,VALID,105,VALID,0.421484,
2010-10-28, 01:40:04,VALID,999.246,VALID,0,VALID,92.1887,VALID,0,VALID,23.8768,VALID,105,VALID,0.313672,
2010-10-28, 01:41:04,VALID,999.236,VALID,0,VALID,92.2192,VALID,0,VALID,23.8591,VALID,105,VALID,0.0984375,
2010-10-28, 01:42:04,VALID,999.228,VALID,0,VALID,92.2192,VALID,0,VALID,23.8378,VALID,105,VALID,0,
2010-10-28, 01:43:04,VALID,999.196,VALID,0,VALID,92.2497,VALID,0,VALID,23.8183,VALID,105,VALID,0,
2010-10-28, 01:44:04,VALID,999.236,VALID,0,VALID,92.265,VALID,0,VALID,23.7988,VALID,105,VALID,0.215234,
2010-10-28, 01:45:04,VALID,999.219,VALID,0,VALID,92.2879,VALID,0,VALID,23.7988,VALID,105,VALID,0.0535156,
2010-10-28, 01:46:04,VALID,999.196,VALID,0,VALID,92.3337,VALID,0,VALID,23.7793,VALID,105,VALID,0,
2010-10-28, 01:47:04,VALID,999.216,VALID,0,VALID,92.3642,VALID,0,VALID,23.7793,VALID,105,VALID,0,
2010-10-28, 01:48:04,VALID,999.168,VALID,0,VALID,92.41,VALID,0,VALID,23.7793,VALID,105,VALID,0,
2010-10-28, 01:49:04,VALID,999.144,VALID,0,VALID,92.4481,VALID,0,VALID,23.7597,VALID,105,VALID,0,
2010-10-28, 01:50:04,VALID,999.136,VALID,0,VALID,92.4786,VALID,0,VALID,23.7402,VALID,105,VALID,0,
2010-10-28, 01:51:04,VALID,999.107,VALID,0,VALID,92.5168,VALID,0,VALID,23.7402,VALID,105,VALID,0.280469,
2010-10-28, 01:52:04,VALID,999.077,VALID,0,VALID,92.5626,VALID,0,VALID,23.7402,VALID,105,VALID,0.369531,
2010-10-28, 01:53:04,VALID,999.07,VALID,0,VALID,92.6007,VALID,0,VALID,23.7793,VALID,105,VALID,0.577734,
2010-10-28, 01:54:04,VALID,999.047,VALID,0,VALID,92.616,VALID,0,VALID,23.797,VALID,105,VALID,0.449219,
2010-10-28, 01:55:04,VALID,999.072,VALID,0,VALID,92.6236,VALID,0,VALID,23.8165,VALID,105,VALID,0.448828,
2010-10-28, 01:56:04,VALID,999.022,VALID,0,VALID,92.6236,VALID,0,VALID,23.836,VALID,105,VALID,0.516406,
2010-10-28, 01:57:04,VALID,999.041,VALID,0,VALID,92.5931,VALID,0,VALID,23.8555,VALID,105,VALID,0.637109,
2010-10-28, 01:58:04,VALID,999.011,VALID,0,VALID,92.5702,VALID,0,VALID,23.875,VALID,105,VALID,0.682031,
2010-10-28, 01:59:04,VALID,998.992,VALID,0,VALID,92.5244,VALID,0,VALID,23.8927,VALID,120,VALID,0.722656,
2010-10-28, 02:00:04,VALID,998.996,VALID,0,VALID,92.4252,VALID,0,VALID,23.9549,VALID,134,VALID,0.668359,
2010-10-28, 02:01:04,VALID,998.984,VALID,0,VALID,92.3794,VALID,0,VALID,23.9336,VALID,134,VALID,0.680078,
2010-10-28, 02:02:04,VALID,998.97,VALID,0,VALID,92.2955,VALID,0,VALID,23.9531,VALID,134,VALID,0.534766,
2010-10-28, 02:03:04,VALID,998.986,VALID,0,VALID,92.2192,VALID,0.112286,VALID,23.9921,VALID,134,VALID,0.512109,
2010-10-28, 02:04:04,VALID,998.97,VALID,0,VALID,92.1734,VALID,0,VALID,23.9921,VALID,134,VALID,0.413672,
2010-10-28, 02:05:04,VALID,998.977,VALID,0,VALID,92.1124,VALID,0,VALID,24.0116,VALID,134,VALID,0.357031,
2010-10-28, 02:06:04,VALID,998.948,VALID,0,VALID,92.0819,VALID,0.112286,VALID,24.0116,VALID,134,VALID,0.0984375,
2010-10-28, 02:07:04,VALID,998.952,VALID,0,VALID,92.0132,VALID,0,VALID,24.0311,VALID,134,VALID,0,
2010-10-28, 02:08:04,VALID,998.946,VALID,0,VALID,91.9751,VALID,0,VALID,24.0311,VALID,134,VALID,0,
2010-10-28, 02:09:04,VALID,998.969,VALID,0,VALID,91.9445,VALID,0,VALID,24.0329,VALID,134,VALID,0,
2010-10-28, 02:10:04,VALID,998.959,VALID,0,VALID,91.9217,VALID,0,VALID,24.0134,VALID,134,VALID,0,
2010-10-28, 02:11:04,VALID,998.99,VALID,0,VALID,91.8988,VALID,0,VALID,24.0329,VALID,134,VALID,0,
2010-10-28, 02:12:04,VALID,998.98,VALID,0,VALID,91.9064,VALID,0,VALID,24.0329,VALID,134,VALID,0,
2010-10-28, 02:13:04,VALID,998.968,VALID,0,VALID,91.8835,VALID,0,VALID,24.0329,VALID,134,VALID,0,
2010-10-28, 02:14:04,VALID,998.97,VALID,0,VALID,91.8683,VALID,0,VALID,24.0329,VALID,132,VALID,0.154687,
2010-10-28, 02:15:04,VALID,998.981,VALID,0,VALID,91.8301,VALID,0,VALID,24.0329,VALID,132,VALID,0.139844,
2010-10-28, 02:16:04,VALID,998.977,VALID,0,VALID,91.8148,VALID,0,VALID,24.0134,VALID,132,VALID,0,
2010-10-28, 02:17:04,VALID,998.959,VALID,0,VALID,91.8148,VALID,0,VALID,24.0134,VALID,132,VALID,0,
2010-10-28, 02:18:04,VALID,998.967,VALID,0,VALID,91.7767,VALID,0,VALID,24.0134,VALID,132,VALID,0.0878906,
2010-10-28, 02:19:04,VALID,998.927,VALID,0,VALID,91.7538,VALID,0,VALID,24.0134,VALID,132,VALID,0,
2010-10-28, 02:20:04,VALID,998.932,VALID,0,VALID,91.7538,VALID,0,VALID,24.0134,VALID,132,VALID,0,
2010-10-28, 02:21:04,VALID,998.91,VALID,0,VALID,91.7767,VALID,0,VALID,24.0134,VALID,132,VALID,0.222266,
2010-10-28, 02:22:04,VALID,998.919,VALID,0,VALID,91.7767,VALID,0,VALID,24.0134,VALID,132,VALID,0.135937,
2010-10-28, 02:23:04,VALID,998.883,VALID,0,VALID,91.7767,VALID,0,VALID,24.0134,VALID,132,VALID,0.169141,
2010-10-28, 02:24:04,VALID,998.875,VALID,0,VALID,91.7843,VALID,0,VALID,24.0134,VALID,132,VALID,0.242578,
2010-10-28, 02:25:04,VALID,998.888,VALID,0,VALID,91.7996,VALID,0,VALID,24.0329,VALID,132,VALID,0.343359,
2010-10-28, 02:26:04,VALID,998.873,VALID,0,VALID,91.7843,VALID,0,VALID,23.9921,VALID,132,VALID,0.466016,
2010-10-28, 02:27:04,VALID,998.846,VALID,0,VALID,91.7691,VALID,0,VALID,24.0134,VALID,4,VALID,0.327344,
2010-10-28, 02:28:04,VALID,998.839,VALID,0,VALID,91.7385,VALID,0,VALID,24.0116,VALID,4,VALID,0.3625,
2010-10-28, 02:29:04,VALID,998.786,VALID,0,VALID,91.708,VALID,0,VALID,24.0134,VALID,4,VALID,0.256641,
2010-10-28, 02:30:04,VALID,998.788,VALID,0,VALID,91.708,VALID,0,VALID,24.0134,VALID,4,VALID,0.717188,
2010-10-28, 02:31:04,VALID,998.768,VALID,0,VALID,91.6623,VALID,0,VALID,24.0134,VALID,42,VALID,0.901953,
2010-10-28, 02:32:04,VALID,998.772,VALID,0,VALID,91.6623,VALID,0,VALID,24.0134,VALID,44,VALID,0.607422,
2010-10-28, 02:33:04,VALID,998.735,VALID,0,VALID,91.6317,VALID,0,VALID,24.0134,VALID,44,VALID,0.503125,
2010-10-28, 02:34:04,VALID,998.736,VALID,0,VALID,91.6165,VALID,0,VALID,23.9939,VALID,44,VALID,0.495313,
2010-10-28, 02:35:04,VALID,998.704,VALID,0,VALID,91.5936,VALID,0,VALID,23.9939,VALID,44,VALID,0.591016,
2010-10-28, 02:36:04,VALID,998.739,VALID,0,VALID,91.6088,VALID,0,VALID,23.9939,VALID,44,VALID,0.543359,
2010-10-28, 02:37:04,VALID,998.705,VALID,0,VALID,91.6317,VALID,0,VALID,23.9939,VALID,44,VALID,0.458984,
2010-10-28, 02:38:04,VALID,998.713,VALID,0,VALID,91.6775,VALID,0,VALID,23.9744,VALID,44,VALID,0.517969,
2010-10-28, 02:39:04,VALID,998.689,VALID,0,VALID,91.708,VALID,0,VALID,23.9744,VALID,44,VALID,0.619531,
2010-10-28, 02:40:04,VALID,998.708,VALID,0,VALID,91.7691,VALID,0,VALID,23.9744,VALID,44,VALID,0.492188,
2010-10-28, 02:41:04,VALID,998.738,VALID,0,VALID,91.8148,VALID,0,VALID,23.9744,VALID,44,VALID,0.6375,
2010-10-28, 02:42:04,VALID,998.74,VALID,0,VALID,91.8225,VALID,0,VALID,23.9744,VALID,44,VALID,0.512109,
2010-10-28, 02:43:04,VALID,998.73,VALID,0,VALID,91.8683,VALID,0,VALID,23.9744,VALID,44,VALID,0.304688,
2010-10-28, 02:44:04,VALID,998.726,VALID,0,VALID,91.8911,VALID,0,VALID,23.9744,VALID,44,VALID,0.257422,
2010-10-28, 02:45:04,VALID,998.744,VALID,0,VALID,91.9293,VALID,0,VALID,23.9744,VALID,44,VALID,0.235547,
2010-10-28, 02:46:04,VALID,998.746,VALID,0,VALID,91.9445,VALID,0,VALID,23.9762,VALID,44,VALID,0.282031,
2010-10-28, 02:47:04,VALID,998.749,VALID,0,VALID,91.9827,VALID,0,VALID,23.9549,VALID,44,VALID,0.276563,
2010-10-28, 02:48:04,VALID,998.746,VALID,0,VALID,92.0056,VALID,0,VALID,23.9549,VALID,44,VALID,0.407422,
2010-10-28, 02:49:04,VALID,998.745,VALID,0,VALID,92.0514,VALID,0,VALID,23.9549,VALID,44,VALID,0.48125,
2010-10-28, 02:50:04,VALID,998.719,VALID,0,VALID,92.0743,VALID,0,VALID,23.9549,VALID,44,VALID,0.357812,
2010-10-28, 02:51:04,VALID,998.75,VALID,0,VALID,92.0819,VALID,0,VALID,23.9549,VALID,44,VALID,0.175391,
2010-10-28, 02:52:04,VALID,998.749,VALID,0,VALID,92.0819,VALID,0,VALID,23.9549,VALID,44,VALID,0.325781,
2010-10-28, 02:53:04,VALID,998.734,VALID,0,VALID,92.1048,VALID,0,VALID,23.9549,VALID,44,VALID,0.466016,
2010-10-28, 02:54:04,VALID,998.746,VALID,0,VALID,92.1048,VALID,0,VALID,23.9744,VALID,27,VALID,0.692578,
2010-10-28, 02:55:04,VALID,998.741,VALID,0,VALID,92.1277,VALID,0,VALID,23.9744,VALID,359,VALID,0.883984,
2010-10-28, 02:56:04,VALID,998.754,VALID,0,VALID,92.1429,VALID,0,VALID,23.9939,VALID,359,VALID,0.682031,
2010-10-28, 02:57:04,VALID,998.695,VALID,0,VALID,92.1506,VALID,0,VALID,24.0134,VALID,358,VALID,0.76875,
2010-10-28, 02:58:04,VALID,998.714,VALID,0,VALID,92.2116,VALID,0,VALID,24.0134,VALID,357,VALID,0.679297,
2010-10-28, 02:59:04,VALID,998.68,VALID,0,VALID,92.2116,VALID,0,VALID,24.0134,VALID,358,VALID,0.691406,
2010-10-28, 03:00:04,VALID,998.655,VALID,0,VALID,92.1963,VALID,0,VALID,24.0134,VALID,357,VALID,0.580469,
2010-10-28, 03:01:04,VALID,998.656,VALID,0,VALID,92.2116,VALID,0,VALID,23.9939,VALID,357,VALID,0.464844,
2010-10-28, 03:02:04,VALID,998.617,VALID,0,VALID,92.204,VALID,0,VALID,23.9726,VALID,357,VALID,0.573828,
2010-10-28, 03:03:04,VALID,998.615,VALID,0,VALID,92.1887,VALID,0,VALID,23.9939,VALID,357,VALID,0.507813,
2010-10-28, 03:04:04,VALID,998.647,VALID,0,VALID,92.1887,VALID,0,VALID,23.9744,VALID,357,VALID,0.426562,
2010-10-28, 03:05:04,VALID,998.597,VALID,0,VALID,92.1811,VALID,0,VALID,23.9531,VALID,357,VALID,0.335547,
2010-10-28, 03:06:04,VALID,998.614,VALID,0,VALID,92.2116,VALID,0,VALID,23.9549,VALID,357,VALID,0.359375,
2010-10-28, 03:07:04,VALID,998.619,VALID,0,VALID,92.2345,VALID,0,VALID,23.9549,VALID,357,VALID,0.254687,
2010-10-28, 03:08:04,VALID,998.602,VALID,0,VALID,92.2421,VALID,0,VALID,23.9744,VALID,357,VALID,0.383984,
2010-10-28, 03:09:04,VALID,998.613,VALID,0,VALID,92.2803,VALID,0,VALID,23.9744,VALID,357,VALID,0.466016,
2010-10-28, 03:10:04,VALID,998.636,VALID,0,VALID,92.326,VALID,0,VALID,23.9726,VALID,358,VALID,0.407813,
2010-10-28, 03:11:04,VALID,998.656,VALID,0,VALID,92.3489,VALID,0,VALID,23.9939,VALID,357,VALID,0.444922,
2010-10-28, 03:12:04,VALID,998.672,VALID,0,VALID,92.3642,VALID,0,VALID,23.9939,VALID,358,VALID,0.583594,
2010-10-28, 03:13:04,VALID,998.672,VALID,0,VALID,92.41,VALID,0,VALID,24.0134,VALID,107,VALID,0.695703,
2010-10-28, 03:14:04,VALID,998.716,VALID,0,VALID,92.3947,VALID,0,VALID,24.0329,VALID,109,VALID,0.839063,
2010-10-28, 03:15:04,VALID,998.7,VALID,0,VALID,92.41,VALID,0,VALID,24.0329,VALID,110,VALID,1.04023,
2010-10-28, 03:16:04,VALID,998.703,VALID,0,VALID,92.3871,VALID,0,VALID,24.072,VALID,113,VALID,1.00234,
2010-10-28, 03:17:04,VALID,998.724,VALID,0,VALID,92.3566,VALID,0,VALID,24.0915,VALID,113,VALID,1.06133,
2010-10-28, 03:18:04,VALID,998.755,VALID,0,VALID,92.3566,VALID,0,VALID,24.111,VALID,116,VALID,0.967578,
2010-10-28, 03:19:04,VALID,998.719,VALID,0,VALID,92.3794,VALID,0,VALID,24.111,VALID,125,VALID,1.24922,
2010-10-28, 03:20:04,VALID,998.724,VALID,0,VALID,92.3489,VALID,0,VALID,24.1092,VALID,127,VALID,1.18125,
2010-10-28, 03:21:04,VALID,998.76,VALID,0,VALID,92.3337,VALID,0,VALID,24.15,VALID,129,VALID,1.15391,
2010-10-28, 03:22:04,VALID,998.79,VALID,0,VALID,92.2879,VALID,0,VALID,24.15,VALID,120,VALID,1.23828,
2010-10-28, 03:23:04,VALID,998.802,VALID,0,VALID,92.2574,VALID,0,VALID,24.1891,VALID,119,VALID,1.10039,
2010-10-28, 03:24:04,VALID,998.829,VALID,0,VALID,92.2345,VALID,0,VALID,24.1891,VALID,116,VALID,1.22891,
2010-10-28, 03:25:04,VALID,998.849,VALID,0,VALID,92.2268,VALID,0,VALID,24.1891,VALID,118,VALID,1.03711,
2010-10-28, 03:26:04,VALID,998.859,VALID,0,VALID,92.204,VALID,0,VALID,24.2086,VALID,117,VALID,0.692187,
2010-10-28, 03:27:04,VALID,998.893,VALID,0,VALID,92.204,VALID,0,VALID,24.2281,VALID,107,VALID,0.820313,
2010-10-28, 03:28:04,VALID,998.878,VALID,0,VALID,92.2192,VALID,0,VALID,24.2281,VALID,97,VALID,1.13125,
2010-10-28, 03:29:04,VALID,998.921,VALID,0,VALID,92.2345,VALID,0,VALID,24.2086,VALID,90,VALID,0.799219,
2010-10-28, 03:30:04,VALID,998.944,VALID,0,VALID,92.2497,VALID,0,VALID,24.2086,VALID,71,VALID,1.0793,
2010-10-28, 03:31:04,VALID,998.962,VALID,0,VALID,92.2497,VALID,0,VALID,24.2086,VALID,71,VALID,0.945703,
2010-10-28, 03:32:04,VALID,998.978,VALID,0,VALID,92.2574,VALID,0,VALID,24.2086,VALID,72,VALID,1.10469,
2010-10-28, 03:33:04,VALID,998.968,VALID,0,VALID,92.2803,VALID,0,VALID,24.1891,VALID,71,VALID,1.16094,
2010-10-28, 03:34:04,VALID,998.981,VALID,0,VALID,92.2879,VALID,0,VALID,24.1891,VALID,63,VALID,0.875781,
2010-10-28, 03:35:04,VALID,998.998,VALID,0.5,VALID,92.2955,VALID,0,VALID,24.2086,VALID,70,VALID,1.01914,
2010-10-28, 03:36:04,VALID,998.974,VALID,0,VALID,92.2726,VALID,0,VALID,24.2086,VALID,67,VALID,0.630859,
2010-10-28, 03:37:04,VALID,998.962,VALID,0,VALID,92.2726,VALID,0,VALID,24.2086,VALID,61,VALID,0.877344,
2010-10-28, 03:38:04,VALID,998.974,VALID,0,VALID,92.2726,VALID,0,VALID,24.2086,VALID,42,VALID,0.65,
2010-10-28, 03:39:04,VALID,998.945,VALID,0,VALID,92.2803,VALID,0,VALID,24.2281,VALID,42,VALID,0.783594,
2010-10-28, 03:40:04,VALID,998.956,VALID,0,VALID,92.2726,VALID,0,VALID,24.2086,VALID,42,VALID,0.308203,
2010-10-28, 03:41:04,VALID,998.961,VALID,0,VALID,92.2421,VALID,0,VALID,24.2281,VALID,42,VALID,0.0773437,
2010-10-28, 03:42:04,VALID,998.96,VALID,0,VALID,92.2497,VALID,0,VALID,24.2281,VALID,42,VALID,0,
2010-10-28, 03:43:04,VALID,998.966,VALID,0,VALID,92.2803,VALID,0,VALID,24.2086,VALID,42,VALID,0,
2010-10-28, 03:44:04,VALID,998.943,VALID,0,VALID,92.2955,VALID,0,VALID,24.1891,VALID,42,VALID,0.090625,
2010-10-28, 03:45:04,VALID,998.954,VALID,0,VALID,92.3184,VALID,0,VALID,24.1891,VALID,42,VALID,0,
2010-10-28, 03:46:04,VALID,998.961,VALID,0,VALID,92.3489,VALID,0,VALID,24.1891,VALID,42,VALID,0.364453,
2010-10-28, 03:47:04,VALID,998.938,VALID,0,VALID,92.3642,VALID,0,VALID,24.1891,VALID,42,VALID,0.430078,
2010-10-28, 03:48:04,VALID,998.941,VALID,0,VALID,92.4023,VALID,0,VALID,24.1891,VALID,67,VALID,0.514453,